Back to catalog

COSMOS 1867 COOLANT

AliveLEO
NORAD 50794·DEBRIS·🇷🇺 Russia

Launched Jul 10, 1987 from Baikonur Cosmodrome

Loading…

Next Passes (next 24 hours)

TLE

AgingSource: Space-Track

Epoch: Sep 11, 2026, 00:59 UTC

1 50794U 87060AW  26254.04150676  .00000243  00000-0  11990-3 0  9996
2 50794  65.0068 125.3839 0018334 281.0765  78.8259 14.35150690421191

Track COSMOS 1867 COOLANT in real time with AllMySat

Download on the App Store